カタログに戻る

NAVSTAR 47

USA 150

運用中ナビゲーションHEO
NORAD 26360·PAYLOAD·🇺🇸 United States

打ち上げ May 11, 2000 から Cape Canaveral Space Force Station

Loading…

次のパス (今後24時間)

TLE

最新Source: Space-Track

元期: Sep 14, 2026, 16:58 UTC

1 26360U 00025A   26257.70708513 -.00000103  00000-0  00000-0 0  9992
2 26360  55.1875  15.7033 0022063 261.3852 116.7946  2.00566985193074

AllMySatでNAVSTAR 47をリアルタイム追跡

Download on the App Store